COSMOS 2491 DEB, 57563

Orbit data source: Space-Track

COSMOS 2491 DEB, 57563 is space debris in LEO originally from a launch on Wed, 25 Dec 2013 UTC launched from the Plesetsk Missile And Space Complex (PKMTR). Debris objects in space refer to the collection of defunct objects orbiting the Earth. Examples of debris include non-operational satellites, rocket bodies, and fragments generated from explosions, collisions, or faulty payload assembly.

Loading next visibility...
Identifier
57563, 2013-076BA
Orbit
LEO
Country
Flag of CISCIS
Related business
Manufacturer
TsNIIKhM
Mission
Spacecraft
Bus & Motor
Unknown
Mass
Unknown
Launch date (UTC)
2013-12-25 (12 years ago)
Launch vehicle
Unknown
Launch site
Plesetsk Missile And Space Complex (PKMTR)
Object type
Payload
Rocket body
Debris
Shape & HBR
Unknown shape, 0.1 m
Radar Cross Section
Small (<0.1 m²)

Expand to show TLE details & history
Last TLE update: 1 day ago

TLE from 1 day ago
0 COSMOS 2491 DEB
1 57563U 13076BA  26128.81952658  .00002019  00000-0  10763-1 0  9996
2 57563  82.4691 162.8638 0145989 100.9151 260.8405 12.62343860137657
Epoch: 2026-05-08T19:40Z
TLE epoch observation values (Epoch: 2026-05-08T19:40:07.096Z)
Latitude
0.00001°
Longitude
1.1884°
Altitude
1,435.736 km
Speed
7.135 km/s
True Right ascension
10h 51m 27s
True Declination
0° 00' 00"
Sunlit
Object was in daylight at epoch
Visualization orbit readout
Latitude
Unknown
Longitude
Unknown
Altitude
Unknown
Speed
Unknown
Apparent Right ascension
Unknown
Apparent Declination
Unknown
Sunlit
N/A
Visualization observer readout
Local Sidereal Time
08:37:56
Azimuth
Unknown
Elevation
Unknown
Doppler factor
Unknown
Orbital elements
Apogee altitude
1,524.316 km
Perigee altitude
1,296.902 km
Semi-major axis
7,788.746 km
Eccentricity
0.0146
Inclination
82.4691°
RAAN
162.8638°
Arg. of periapsis
100.9151°
True anomaly
259.19393°
Mean anomaly
260.8405°
Eccentric anomaly
260.01671°
Mean motion
3.15749 °/min
Orbital period
114.01 mins
BSTAR
0.010763
Loading maneuver chart data...
Computing Atmospheric mass density...
Loading historical data...
Loading historical data...
Loading historical data...
Loading historical data...
Loading historical data...
Loading historical data...
Loading historical data...

Documentation

Showing up to 5 results
|